Le nostre stazioni meteo in Italia

Pubblicità
Il mio iltempo24.it
Bari Palese, Italia (16270): Temperatura & dewpoint: 19.06.2019 20:00:00 - 25.06.2019 20:00:00 (CEST)Bari Palese, Italia (16270): velocità del vento: 19.06.2019 20:00:00 - 25.06.2019 20:00:00 (CEST)Bari Palese, Italia (16270): direzione del vento: 19.06.2019 20:00:00 - 25.06.2019 20:00:00 (CEST)Bari Palese, Italia (16270): reduced air pressure: 19.06.2019 20:00:00 - 25.06.2019 20:00:00 (CEST)Bari Palese, Italia (16270): visibility: 19.06.2019 20:00:00 - 25.06.2019 20:00:00 (CEST)Bari Palese, Italia (16270): precipitazioni: 19.06.2019 20:00:00 - 25.06.2019 20:00:00 (CEST)
Data & Tempo tt [°C] td [°C] ff [km/h] ff [kn] dd ppp [hPa] vv [km] rr [mm]
25.06.2019 20:00:00 25,8 19,8 16 9 NNE 1018,8 20 -
25.06.2019 19:00:00 - - - - - - - -
25.06.2019 18:00:00 - - - - - - - -
25.06.2019 17:00:00 28,9 18,2 21 11 N 1018,9 20 0,0
25.06.2019 16:00:00 - - - - - - - -
25.06.2019 15:00:00 - - - - - - - -
25.06.2019 14:00:00 28,3 19,1 24 13 N 1019,0 20 -
25.06.2019 13:00:00 - - - - - - - -
25.06.2019 12:00:00 - - - - - - - -
25.06.2019 11:00:00 27,5 19,9 22 12 N 1018,2 20 0,0
25.06.2019 10:00:00 - - - - - - - -
25.06.2019 09:00:00 - - - - - - - -
25.06.2019 08:00:00 25,6 18,5 18 10 NO 1017,1 18 -
25.06.2019 07:00:00 - - - - - - - -
25.06.2019 06:00:00 - - - - - - - -
25.06.2019 05:00:00 22,7 18,5 16 9 NO 1016,4 - 0,0
25.06.2019 04:00:00 - - - - - - - -
25.06.2019 03:00:00 - - - - - - - -
25.06.2019 02:00:00 23,4 16,6 16 9 ONO 1016,7 - -
25.06.2019 01:00:00 - - - - - - - -
25.06.2019 00:00:00 - - - - - - - -
24.06.2019 23:00:00 24,1 17,4 11 6 ONO 1017,4 18 0,0
24.06.2019 22:00:00 - - - - - - - -
24.06.2019 21:00:00 - - - - - - - -
24.06.2019 20:00:00 25,5 17,1 22 12 N 1016,6 20 -
24.06.2019 19:00:00 - - - - - - - -
24.06.2019 18:00:00 - - - - - - - -
24.06.2019 17:00:00 27,2 18,2 26 14 N 1015,9 23 0,0
24.06.2019 16:00:00 - - - - - - - -
24.06.2019 15:00:00 - - - - - - - -
24.06.2019 14:00:00 27,7 18,4 26 14 N 1016,1 - -
24.06.2019 13:00:00 - - - - - - - -
24.06.2019 12:00:00 - - - - - - - -
24.06.2019 11:00:00 27,8 16,5 22 12 N 1016,1 - 0,0
24.06.2019 10:00:00 - - - - - - - -
24.06.2019 09:00:00 - - - - - - - -
24.06.2019 08:00:00 25,6 16,3 13 7 NO 1015,9 - -
24.06.2019 07:00:00 - - - - - - - -
24.06.2019 06:00:00 - - - - - - - -
24.06.2019 05:00:00 20,2 15,0 5 3 NO 1015,5 10 0,0
24.06.2019 04:00:00 - - - - - - - -
24.06.2019 03:00:00 - - - - - - - -
24.06.2019 02:00:00 21,6 18,6 5 3 OSO 1015,5 10 -
24.06.2019 01:00:00 - - - - - - - -
24.06.2019 00:00:00 - - - - - - - -
23.06.2019 23:00:00 23,2 19,3 5 3 O 1015,9 - 0,0
23.06.2019 22:00:00 - - - - - - - -
23.06.2019 21:00:00 - - - - - - - -
23.06.2019 20:00:00 24,8 19,5 9 5 NE 1015,0 - -
23.06.2019 19:00:00 - - - - - - - -
23.06.2019 18:00:00 - - - - - - - -
23.06.2019 17:00:00 26,7 19,2 16 9 ENE 1014,3 - 0,0
23.06.2019 16:00:00 - - - - - - - -
23.06.2019 15:00:00 - - - - - - - -
23.06.2019 14:00:00 27,1 20,3 21 11 NE 1014,3 - -
23.06.2019 13:00:00 - - - - - - - -
23.06.2019 12:00:00 - - - - - - - -
23.06.2019 11:00:00 29,5 19,0 18 10 N 1013,2 10 0,0
23.06.2019 10:00:00 - - - - - - - -
23.06.2019 09:00:00 - - - - - - - -
23.06.2019 08:00:00 25,8 19,7 16 9 O 1012,8 10 -
23.06.2019 07:00:00 - - - - - - - -
23.06.2019 06:00:00 - - - - - - - -
23.06.2019 05:00:00 25,4 15,0 8 4 O 1011,7 11 0,0
23.06.2019 04:00:00 - - - - - - - -
23.06.2019 03:00:00 - - - - - - - -
23.06.2019 02:00:00 25,8 13,5 11 6 SO 1011,8 - -
23.06.2019 01:00:00 - - - - - - - -
23.06.2019 00:00:00 - - - - - - - -
22.06.2019 23:00:00 27,8 14,9 11 6 SSO 1012,0 10 0,0
22.06.2019 22:00:00 - - - - - - - -
22.06.2019 21:00:00 - - - - - - - -
22.06.2019 20:00:00 33,4 12,4 11 6 SSO 1012,3 10 -
22.06.2019 19:00:00 - - - - - - - -
22.06.2019 18:00:00 - - - - - - - -
22.06.2019 17:00:00 32,6 14,0 15 8 ESE 1013,2 10 0,0
22.06.2019 16:00:00 - - - - - - - -
22.06.2019 15:00:00 - - - - - - - -
22.06.2019 14:00:00 31,2 14,8 11 6 E 1015,2 11 -
22.06.2019 13:00:00 - - - - - - - -
22.06.2019 12:00:00 - - - - - - - -
22.06.2019 11:00:00 33,9 13,2 5 3 N 1016,6 11 0,0
22.06.2019 10:00:00 - - - - - - - -
22.06.2019 09:00:00 - - - - - - - -
22.06.2019 08:00:00 27,7 17,6 2 1 N 1015,1 11 -
22.06.2019 07:00:00 - - - - - - - -
22.06.2019 06:00:00 - - - - - - - -
22.06.2019 05:00:00 21,8 17,5 5 3 O 1014,6 20 0,0
22.06.2019 04:00:00 - - - - - - - -
22.06.2019 03:00:00 - - - - - - - -
22.06.2019 02:00:00 24,4 15,5 5 3 SSO 1014,7 20 -
22.06.2019 01:00:00 - - - - - - - -
22.06.2019 00:00:00 - - - - - - - -
21.06.2019 23:00:00 27,5 17,2 4 2 - 1014,9 - 0,0
21.06.2019 22:00:00 - - - - - - - -
21.06.2019 21:00:00 - - - - - - - -
21.06.2019 20:00:00 29,9 15,1 9 5 ESE 1014,1 11 -
21.06.2019 19:00:00 - - - - - - - -
21.06.2019 18:00:00 - - - - - - - -
21.06.2019 17:00:00 31,8 15,9 15 8 ESE 1014,1 11 0,0
21.06.2019 16:00:00 - - - - - - - -
21.06.2019 15:00:00 - - - - - - - -
21.06.2019 14:00:00 29,7 17,3 18 10 E 1015,1 20 -
21.06.2019 13:00:00 - - - - - - - -
21.06.2019 12:00:00 - - - - - - - -
21.06.2019 11:00:00 28,9 17,5 13 7 ENE 1015,8 20 0,0
21.06.2019 10:00:00 - - - - - - - -
21.06.2019 09:00:00 - - - - - - - -
21.06.2019 08:00:00 27,5 16,1 5 3 NO 1015,1 20 -
21.06.2019 07:00:00 - - - - - - - -
21.06.2019 06:00:00 - - - - - - - -
21.06.2019 05:00:00 21,4 15,2 11 6 SO 1014,1 30 0,0
21.06.2019 04:00:00 - - - - - - - -
21.06.2019 03:00:00 - - - - - - - -
21.06.2019 02:00:00 22,6 16,7 8 4 SO 1014,1 30 -
21.06.2019 01:00:00 - - - - - - - -
21.06.2019 00:00:00 - - - - - - - -
20.06.2019 23:00:00 23,9 14,1 4 2 S 1013,7 18 0,0
20.06.2019 22:00:00 - - - - - - - -
20.06.2019 21:00:00 - - - - - - - -
20.06.2019 20:00:00 28,5 14,1 8 4 ESE 1012,5 16 -
20.06.2019 19:00:00 - - - - - - - -
20.06.2019 18:00:00 - - - - - - - -
20.06.2019 17:00:00 29,5 18,2 13 7 E 1012,1 16 0,0
20.06.2019 16:00:00 - - - - - - - -
20.06.2019 15:00:00 - - - - - - - -
20.06.2019 14:00:00 28,8 19,7 15 8 E 1013,3 11 -
20.06.2019 13:00:00 - - - - - - - -
20.06.2019 12:00:00 - - - - - - - -
20.06.2019 11:00:00 28,7 16,8 11 6 NNE 1013,7 - 0,0
20.06.2019 10:00:00 - - - - - - - -
20.06.2019 09:00:00 - - - - - - - -
20.06.2019 08:00:00 26,2 18,7 2 1 N 1013,5 11 -
20.06.2019 07:00:00 - - - - - - - -
20.06.2019 06:00:00 - - - - - - - -
20.06.2019 05:00:00 20,3 16,7 8 4 OSO 1012,6 - 0,0
20.06.2019 04:00:00 - - - - - - - -
20.06.2019 03:00:00 - - - - - - - -
20.06.2019 02:00:00 21,3 17,5 8 4 O 1012,6 - -
20.06.2019 01:00:00 - - - - - - - -
20.06.2019 00:00:00 - - - - - - - -
19.06.2019 23:00:00 24,1 21,4 8 4 E 1013,2 11 0,0
19.06.2019 22:00:00 - - - - - - - -
19.06.2019 21:00:00 - - - - - - - -
19.06.2019 20:00:00 26,3 17,4 9 5 ENE 1012,3 11 -

tt = Temperatura
td = dewpoint
ff = velocità del vento
dd = direzione del vento
ppp = reduced air pressure
vv = visibility
rr = precipitazioni

Stazioni seguenti

WeatherPro
AMSI
MeteoEarth